Weather in Verkhniye Kularki

Russia / Zabaykalsky Krai     52°49′56″N   118°56′47″E
temp.,
°C
wind,
m/s
gust,
m/s
humid.,
%
clouds,
%
prec.,
mm/h
press.,
hPa
HPBL,
m
29 july, thu
thu2900:00+12wsw00965 0.0 100311
03:00+12s11975 0.0 100310
06:00+12s11974 0.0 100314
09:00+18wsw11739 0.0 1002472
12:00+23w225218 0.0 10001394
15:00+24wnw2248100 0.1 9981903
18:00+18n228796 0.6 100039
21:00+15n229667 1.1 100151
30 july, fri
fri3000:00+14n129893 0.1 100242
03:00+13n129820 0.1 100260
06:00+11n119896 0.0 100353
09:00+16nne258578 0.0 1004705
12:00+18ne367284 0.2 1004839
15:00+22ene364815 0.4 10031594
18:00+23nne563911 0.0 10032340
21:00+14nne246627 0.0 100663
31 july, sat
sat3100:00+11ne2281100 0.0 100717
03:00+9nne118653 0.0 100813
06:00+8n1190100 0.0 101020
09:00+15n266087 0.0 1009548
12:00+21ne573710 0.0 10082338
15:00+23nne57315 0.0 10072615
18:00+20nne894325 0.0 10091688
21:00+12nne2269100 0.0 101021
1 august, sun
sun100:00+9n22815 0.0 101219
03:00+7n11942 0.0 101212
06:00+7nnw11945 0.0 101318
09:00+15n37565 0.0 1011851
12:00+19nne57355 0.0 10102082
15:00+19nne583833 0.0 10102072
18:00+18ne364412 0.0 10101709
21:00+11ene11750 0.0 101110
2 august, mon
mon200:00+8sse00870 0.0 101210
03:00+7ssw11930 0.0 101210
06:00+7s11926 0.0 101211
09:00+16w115655 0.0 1010431
12:00+18sw135030 0.0 1008554
15:00+21sw35456 0.1 10071210
18:00+22wsw364796 0.0 10051312
21:00+15se22745 0.1 100613